Don Miguel Hidalgo Y Costilla International Airport
MMGL : now visible

Airfield :











YOU CAN JOIN US ON...

 
LOGIN :

Register | Disclaimer

   EN    FR    IT 

 









Legend :    VFR   Marginal VFR   IFR   Intensive IFR   Very Intensive IFR
Visi :
Ceiling :
>= 8 km
>= 3000ft
5 to 8 km
1000 to 3000 ft
1500m to 5 km
500 to 1000 ft
800 to 1500m
200 to 500 ft
< 800m
< 200 ft
Symbols :   Thunderstorms  Fog  Heavy snow  Heavy precipitations  Wind > 20 kt







- Airport Elevation : 5016 ft
- IATA code : GDL


MMGL - Don Miguel Hidalgo Y Costilla International

CURRENT METAR :
  • 200842Z 30004KT 10SM BKN020 OVC090 18/16 A3014 RMK SLP088 54000 903 8/57/

EXPIRED METARs :
  • 200744Z 00000KT 10SM BKN020 OVC090 18/16 A3014 RMK 8/57/
  • 200640Z 00000KT 10SM BKN020 OVC090 18/15 A3014 RMK 8/57/

TAF TAF MMGL
Valid from the 20 at 06:00 until the 21 at 12:00 UTC


200438Z 2006/2112 00000KT P6SM BKN020 BKN090 TX25/2021Z TN17/2012Z
FM201800 13010KT P6SM SCT030 BKN100
TEMPO 2022/2102 5SM TSRA BKN020CB
FM210300 13005KT 6SM HZ BKN020 BKN090
No reported NOTAMs for that airfield.



MET'MAP, your aeronautical weather chart ! - Copyright ORBIFLY December 2007 - Disclaimer

ORBIFLY MET'MAP TEAM :

Programming & Development : Alexandra Zaïnal
Concept & Development : Baudouin d'Aumeries
Co-Development & Prog : Marc-Olivier Méhu
Technical & hardware support : Manuel Goepfert

Contact : metmap@orbifly.com




SOURCES & CREDITS :

   NOAA       Earth
Advisory